Wind_Speed
12 11 10 8 7 7 8 8 9 10 11 12 12 13 15 17 18 18 18 20 22 22 20 18 16 15 14 13 13 12 12 11 11 10 10 11 12 12 14 15 16 17
15 14 14 12 11 11 12 12 12 13 13 14 14 14 14 16 17 18 18 20 22 22 21 18 16 15 14 14 13 13 13 13 12 11 11 12 12 13 14 15 16 17
19 18 17 16 14 15 15 15 15 15 15 16 15 15 15 16 17 18 19 19 21 22 21 18 16 15 14 13 13 13 14 14 14 13 12 13 14 14 16 17 17 18
22 22 20 19 19 19 19 19 18 17 17 17 17 16 16 16 17 18 19 19 20 21 20 18 16 15 14 13 12 13 14 14 14 14 14 14 15 16 17 17 17 17
24 25 25 23 23 23 23 22 20 19 19 18 18 17 16 16 17 18 18 18 19 20 20 17 15 14 13 13 13 13 14 14 14 14 14 15 16 16 17 17 17 17
26 27 28 27 27 27 27 25 23 22 20 19 19 19 18 18 17 17 18 18 18 20 19 16 14 14 13 13 13 14 14 14 15 15 15 15 16 17 17 17 17 17
27 27 29 27 26 28 30 29 27 23 22 22 22 21 20 20 18 17 17 17 18 20 18 16 14 13 13 13 13 14 14 14 15 15 16 16 16 16 16 17 17 17
31 29 30 29 26 26 29 31 29 26 25 25 25 23 21 20 19 17 16 17 19 20 19 16 15 13 12 13 13 13 13 14 15 16 16 16 16 16 16 17 18 18
36 34 34 34 32 29 27 30 31 29 29 28 24 24 22 20 19 18 16 17 19 20 19 16 14 12 11 12 12 12 13 14 15 16 16 16 16 16 16 18 18 18
40 39 38 38 38 35 29 28 30 32 33 29 24 22 20 20 21 19 17 18 19 19 18 16 13 11 11 11 10 11 12 14 15 16 16 16 15 16 16 17 18 19
43 43 43 42 40 40 36 29 29 34 35 31 25 22 20 21 22 20 18 18 19 18 16 15 12 10 10 10 10 11 12 13 14 15 15 15 15 16 17 18 19 19
43 45 47 46 43 44 40 31 30 35 37 33 26 21 21 23 23 21 19 18 18 17 16 14 12 11 10 10 10 10 11 12 13 14 14 15 16 17 19 19 20 20
43 47 49 48 46 45 41 34 31 36 39 35 27 22 23 24 23 21 19 18 17 16 16 14 13 11 11 11 11 11 11 12 14 14 15 16 17 18 19 20 22 23
41 48 51 50 48 48 45 39 35 36 40 38 29 24 24 25 24 22 19 18 17 16 16 15 14 12 13 13 13 12 13 14 15 16 16 17 18 18 20 22 23 25
42 52 53 50 50 50 47 44 41 39 40 37 29 24 25 26 24 21 19 18 16 16 16 16 14 13 14 14 14 14 15 15 17 17 17 18 19 20 21 22 23 24
46 56 53 48 52 55 50 47 46 42 38 34 28 24 25 25 23 21 18 17 16 16 16 16 15 13 14 14 15 16 17 17 18 19 19 20 21 22 22 22 22 24
44 49 47 44 50 57 55 50 47 42 40 35 29 26 26 24 21 19 17 16 16 16 17 16 15 13 13 14 16 17 18 19 20 20 21 23 24 24 23 23 24 25
42 43 43 44 51 56 55 52 48 44 43 39 32 27 25 23 20 17 16 16 16 17 17 16 14 13 14 15 16 17 19 20 22 22 23 25 26 26 26 26 27 27
40 41 43 48 56 57 53 51 48 48 48 39 31 30 27 22 19 16 15 17 17 17 17 16 15 14 15 16 16 17 19 21 22 23 24 26 28 29 29 30 30 30
39 42 47 53 59 56 51 50 48 49 49 38 29 32 29 21 18 16 16 18 17 17 17 16 16 16 16 17 17 17 20 22 23 24 25 26 28 29 30 32 33 33
39 44 49 54 56 53 49 50 47 49 51 40 31 32 28 21 18 16 16 18 19 17 17 16 17 18 18 18 18 19 22 24 25 25 26 27 27 28 31 34 34 34
36 40 43 45 49 51 49 48 48 51 53 44 34 33 31 24 20 18 17 19 19 18 17 15 15 17 20 20 20 23 26 28 28 28 28 28 28 29 32 34 34 34
31 35 36 37 42 47 48 49 51 52 49 39 33 35 34 26 20 18 17 18 18 17 17 15 15 17 21 22 22 25 28 30 30 30 30 29 30 31 33 34 34 34
30 33 36 37 39 43 48 52 53 48 36 27 30 35 32 25 22 21 19 17 17 16 17 16 16 17 20 22 24 27 29 31 31 31 30 29 30 32 33 33 33 34
32 34 38 39 39 45 52 51 44 32 20 20 30 32 28 25 24 23 20 17 15 17 17 18 18 19 22 25 27 29 31 32 31 30 30 30 31 33 33 33 32 33
32 33 35 35 38 42 44 36 26 18 15 20 28 28 27 27 25 22 19 16 16 20 20 19 20 22 24 27 30 32 33 31 30 29 29 30 31 33 32 31 31 33
Wind_Direction
233 230 226 232 251 262 268 280 293 302 313 322 329 336 341 343 343 341 343 346 346 345 343 344 345 344 342 337 332 326 320 316 313 312 309 305 303 301 301 300 298 297
237 236 237 242 249 255 259 267 279 289 299 308 315 323 329 333 335 335 337 341 343 341 339 339 340 340 337 334 329 323 318 315 312 311 307 300 297 295 293 292 290 290
240 243 245 248 249 252 257 263 270 278 288 300 308 314 318 322 327 328 330 335 338 337 334 333 334 334 333 330 326 320 316 314 312 311 307 300 296 293 290 289 290 291
244 247 249 251 251 254 259 263 268 272 280 291 298 304 310 313 317 321 323 326 331 332 327 325 328 329 328 326 324 320 316 314 312 310 307 300 296 294 291 292 294 295
250 251 252 254 255 257 261 263 266 268 273 282 290 295 300 304 307 310 314 318 323 325 321 318 321 322 323 325 326 324 319 315 313 309 306 302 299 298 297 296 296 296
251 250 251 255 256 258 261 262 262 262 267 275 282 287 292 295 297 301 306 311 316 319 315 311 313 316 321 328 331 329 324 320 316 312 309 306 303 301 299 298 298 297
251 248 247 251 257 259 259 260 259 257 260 267 275 281 285 289 291 294 300 306 312 314 310 305 309 316 324 334 336 332 328 325 320 316 312 309 306 302 299 299 300 299
249 247 246 250 258 262 260 258 255 253 255 262 275 282 281 283 287 290 298 305 309 309 305 303 308 317 329 336 336 333 331 327 322 317 313 309 307 304 302 302 304 303
249 249 250 252 257 265 267 260 252 251 254 261 279 288 281 279 284 288 296 303 305 304 301 300 307 318 329 334 334 332 329 326 322 317 313 311 309 307 306 306 306 307
249 250 252 255 257 261 267 263 252 252 255 260 277 288 278 275 281 287 295 298 299 299 296 298 305 315 325 328 331 331 328 326 323 318 315 312 310 308 306 305 304 305
251 251 251 255 257 257 261 263 252 251 255 261 274 284 273 271 279 284 289 292 293 293 292 294 301 308 317 324 327 328 328 327 323 319 315 311 308 304 300 300 300 300
254 252 251 252 255 253 256 259 247 245 254 260 271 278 268 268 277 280 283 288 288 287 287 288 294 302 312 319 323 324 325 327 324 320 315 309 306 302 298 297 296 295
260 256 249 247 249 247 250 255 245 241 250 258 266 271 265 267 274 275 279 284 282 280 282 285 289 298 308 314 316 318 321 326 327 322 316 309 305 302 299 295 293 293
269 261 250 245 247 247 249 254 250 244 247 253 262 266 261 264 270 271 274 277 276 277 279 283 288 296 306 309 308 312 318 324 327 324 316 309 305 304 302 298 295 295
272 261 251 247 250 251 251 250 249 248 248 250 256 257 255 259 264 266 269 269 270 276 278 281 287 294 302 306 305 306 309 315 323 324 318 313 310 308 305 300 297 297
271 263 258 255 252 253 256 251 246 250 253 249 247 245 246 253 259 260 263 266 267 273 277 279 284 291 299 303 302 298 296 302 315 320 320 319 317 312 307 300 296 297
270 270 271 270 261 256 256 251 247 252 253 245 238 237 239 244 251 255 258 261 264 268 273 276 281 289 295 297 297 293 291 298 307 314 318 320 318 313 307 301 298 300
271 274 277 280 273 263 255 251 253 254 251 242 230 228 233 236 241 250 254 256 260 265 270 274 277 283 286 289 293 295 296 300 304 310 316 318 316 312 307 303 301 304
275 280 284 283 277 268 256 253 256 254 254 252 234 221 224 228 232 240 246 251 257 262 266 268 270 276 281 284 288 293 297 299 302 307 313 315 312 309 306 303 302 305
281 285 286 282 277 272 260 253 256 256 256 255 236 221 220 217 222 233 242 249 255 258 260 263 266 271 276 278 284 295 298 298 300 304 308 311 308 303 299 298 301 305
284 287 289 287 286 284 271 261 265 268 261 249 227 220 217 208 211 224 235 245 252 252 255 264 270 274 278 279 286 298 300 298 299 301 304 307 304 295 291 295 302 306
286 290 295 298 298 297 291 283 283 276 261 242 221 214 213 208 208 218 231 242 248 250 258 270 279 283 282 280 283 292 296 297 300 301 301 302 298 292 292 298 304 306
291 293 297 304 303 299 297 292 280 262 245 230 217 214 214 212 210 216 226 236 241 249 260 270 279 281 278 276 281 288 291 294 298 301 299 297 294 294 297 303 305 305
296 297 298 299 298 296 293 284 263 242 229 225 221 218 216 213 210 211 217 226 238 251 263 273 281 284 283 286 288 288 289 293 297 298 296 293 293 296 300 304 305 304
300 301 297 295 298 294 286 272 250 233 231 234 226 221 217 211 207 210 216 222 236 251 266 283 292 290 289 291 290 288 290 294 295 293 292 292 294 297 301 303 303 304
307 304 296 297 299 284 263 246 240 251 254 232 223 219 213 209 210 217 222 228 240 245 253 270 279 278 282 288 291 292 293 294 292 290 291 293 295 297 299 301 303 304
Height
3190 3190 3190 3190 3190 3190 3190 3190 3190 3190 3189 3188 3188 3188 3187 3186 3186 3185 3184 3183 3182 3181 3179 3177 3176 3174 3173 3173 3172 3171 3171 3170 3169 3168 3168 3167 3167 3166 3166 3165 3164 3164
3188 3188 3188 3188 3188 3188 3188 3189 3188 3188 3187 3187 3186 3185 3185 3184 3184 3183 3183 3181 3180 3179 3177 3176 3174 3173 3172 3171 3171 3170 3170 3169 3168 3167 3167 3166 3165 3165 3164 3164 3163 3162
3186 3186 3186 3186 3186 3186 3186 3186 3186 3186 3185 3185 3184 3183 3183 3183 3182 3181 3180 3179 3178 3177 3176 3175 3173 3172 3171 3170 3169 3169 3168 3168 3166 3165 3165 3164 3163 3163 3162 3161 3161 3160
3184 3184 3184 3184 3183 3183 3183 3183 3183 3183 3183 3182 3182 3181 3181 3181 3180 3180 3179 3178 3177 3176 3174 3173 3172 3171 3170 3169 3168 3167 3167 3166 3165 3164 3163 3162 3161 3160 3160 3159 3159 3158
3181 3181 3181 3181 3181 3181 3181 3181 3181 3181 3181 3180 3180 3180 3179 3179 3179 3178 3177 3176 3175 3174 3173 3172 3171 3170 3169 3168 3167 3166 3166 3165 3163 3162 3161 3160 3159 3158 3157 3157 3156 3156
3178 3178 3178 3178 3178 3178 3178 3178 3178 3178 3178 3179 3178 3178 3178 3177 3177 3176 3175 3174 3174 3173 3172 3170 3169 3168 3167 3166 3165 3165 3164 3163 3162 3161 3160 3158 3157 3156 3155 3155 3154 3154
3174 3174 3174 3174 3175 3175 3175 3175 3175 3176 3176 3176 3176 3176 3176 3176 3175 3174 3173 3173 3172 3171 3170 3169 3168 3167 3166 3165 3164 3163 3162 3161 3160 3159 3158 3157 3155 3154 3153 3152 3152 3152
3170 3171 3171 3171 3171 3172 3172 3172 3173 3174 3174 3174 3174 3174 3174 3174 3173 3172 3171 3170 3169 3168 3167 3166 3165 3164 3163 3163 3162 3161 3160 3159 3158 3158 3156 3155 3154 3152 3151 3150 3150 3149
3166 3166 3167 3167 3167 3168 3169 3169 3170 3171 3172 3172 3172 3172 3172 3172 3171 3170 3169 3167 3167 3166 3165 3164 3163 3162 3161 3160 3160 3159 3158 3157 3157 3156 3155 3154 3152 3151 3149 3148 3147 3147
3162 3162 3163 3163 3164 3164 3165 3165 3167 3168 3169 3169 3170 3169 3169 3169 3168 3167 3166 3165 3164 3163 3162 3161 3160 3159 3159 3158 3158 3157 3156 3156 3155 3154 3153 3152 3150 3149 3147 3146 3145 3145
3158 3159 3159 3159 3160 3160 3160 3162 3164 3164 3164 3166 3167 3166 3166 3165 3165 3164 3163 3163 3162 3160 3159 3159 3158 3157 3157 3156 3156 3155 3154 3154 3153 3152 3151 3149 3148 3147 3145 3144 3143 3143
3155 3155 3154 3155 3156 3157 3157 3159 3162 3162 3161 3162 3163 3163 3163 3163 3162 3161 3161 3160 3159 3158 3157 3156 3156 3156 3155 3154 3154 3153 3153 3152 3151 3150 3149 3148 3146 3144 3143 3142 3141 3140
3150 3149 3149 3152 3154 3156 3157 3158 3159 3160 3158 3159 3160 3160 3160 3160 3159 3158 3157 3156 3156 3155 3154 3154 3154 3153 3153 3152 3152 3151 3150 3150 3149 3148 3147 3146 3144 3142 3141 3139 3138 3137
3147 3143 3142 3146 3148 3150 3153 3153 3153 3154 3154 3155 3157 3157 3157 3157 3157 3156 3155 3153 3153 3152 3152 3151 3151 3151 3150 3150 3149 3148 3148 3147 3147 3146 3145 3143 3142 3140 3139 3137 3136 3135
3142 3135 3135 3141 3141 3141 3144 3145 3145 3146 3147 3150 3152 3153 3154 3154 3153 3153 3152 3151 3150 3150 3149 3149 3149 3148 3148 3147 3147 3146 3145 3145 3145 3144 3142 3141 3139 3137 3136 3135 3134 3133
3133 3127 3131 3138 3137 3134 3136 3139 3139 3139 3141 3144 3147 3148 3149 3150 3149 3149 3149 3148 3148 3147 3146 3146 3146 3145 3145 3144 3144 3143 3143 3142 3142 3141 3139 3138 3136 3135 3133 3132 3131 3130
3129 3125 3129 3132 3129 3126 3129 3132 3134 3136 3138 3139 3141 3142 3144 3145 3145 3146 3145 3145 3145 3144 3143 3143 3142 3142 3142 3141 3141 3140 3140 3139 3138 3137 3136 3134 3133 3132 3130 3129 3128 3127
3127 3125 3126 3125 3121 3120 3124 3127 3128 3130 3131 3133 3135 3137 3139 3140 3141 3142 3142 3142 3142 3141 3141 3140 3139 3139 3139 3138 3138 3137 3136 3135 3134 3133 3132 3131 3129 3128 3127 3125 3124 3123
3125 3124 3123 3119 3114 3116 3121 3123 3123 3124 3122 3125 3130 3132 3133 3136 3137 3138 3139 3139 3139 3138 3138 3137 3137 3136 3136 3135 3135 3134 3133 3131 3130 3129 3128 3127 3126 3124 3123 3121 3120 3118
3123 3121 3118 3112 3109 3114 3119 3119 3119 3120 3117 3119 3124 3126 3127 3131 3132 3133 3135 3136 3136 3136 3135 3135 3134 3133 3133 3132 3131 3130 3129 3128 3127 3126 3125 3124 3123 3121 3120 3118 3116 3114
3120 3117 3113 3109 3108 3112 3116 3114 3114 3114 3112 3113 3117 3120 3123 3126 3127 3128 3131 3132 3133 3133 3133 3133 3132 3131 3130 3130 3128 3127 3126 3125 3123 3122 3121 3121 3120 3119 3117 3114 3112 3110
3116 3113 3110 3108 3106 3106 3108 3109 3108 3107 3105 3106 3109 3114 3118 3120 3121 3124 3127 3129 3129 3130 3130 3130 3129 3129 3128 3127 3125 3124 3123 3122 3120 3119 3118 3117 3116 3115 3113 3111 3109 3106
3112 3110 3109 3107 3104 3101 3101 3102 3100 3097 3097 3101 3106 3110 3113 3115 3118 3121 3123 3124 3126 3126 3126 3127 3126 3125 3124 3123 3122 3121 3119 3118 3117 3116 3115 3113 3112 3110 3109 3107 3105 3102
3109 3107 3105 3103 3101 3098 3095 3093 3091 3091 3095 3102 3106 3108 3111 3113 3115 3117 3117 3119 3121 3123 3123 3123 3123 3122 3121 3120 3119 3118 3116 3115 3113 3112 3111 3109 3108 3106 3105 3103 3101 3098
3105 3103 3101 3098 3096 3092 3085 3083 3087 3093 3098 3103 3104 3106 3109 3111 3111 3112 3112 3114 3116 3118 3119 3120 3120 3120 3119 3118 3117 3115 3113 3111 3110 3108 3107 3105 3104 3103 3101 3100 3097 3094
3101 3099 3096 3094 3091 3086 3080 3082 3090 3096 3099 3101 3102 3104 3106 3107 3108 3109 3110 3111 3112 3112 3113 3115 3116 3115 3115 3114 3113 3112 3110 3108 3106 3104 3103 3101 3100 3099 3097 3096 3093 3090